Flag for U.S.A. Weather past 2 weeks in Norfolk, Virginia, U.S.A.

Now
78 °F

Passing clouds.


Feels Like: 80 °F
Forecast: 68 / 80 °F
Wind: 9 mph from East

Location: Norfolk Naval Air Station

Current Time: Jul 29, 2014 at 5:42:43 PM

Latest Report: Jul 29, 2014 at 4:59 PM


Visibility: 10 mi

Pressure: 29.95 "Hg

Humidity: 54%

Dew point: 60 °F

Location of NorfolkLocation

Historic Weather in Norfolk — Graph

°F

Norfolk temperature yesterday

Maximum temperature yesterday: 88 °F (at 12:59 PM)
Minimum temperature yesterday: 77 °F (at 11:59 PM)
Average temperature yesterday: 83 °F

Past Weeks' High & Low Weather Summary

 TemperatureHumidityPressure
High93 °F (Jul 14, 3:59 PM)94% (Jul 24, 7:59 PM)30.23 "Hg (Jul 24, 7:59 PM)
Low69 °F (Jul 18, 1:59 AM)38% (Jul 18, 3:59 PM)29.65 "Hg (Jul 28, 4:59 AM)
Average79 °F70%29.98 "Hg
* Reported Jul 14 3:59 PM — Jul 29 3:59 PM, Norfolk, Weather by CustomWeather, © 2014

Note: Actual official high and low records may vary slightly from our data, if they occured in-between our weather recording intervals... More about our weather records

Advertising

Norfolk weather history for previous 24 hours

 ConditionsComfort  
Time TempWeatherWind HumidityBarometerVisibility
3:59 PM
Jul 29
79 °FPassing clouds.8 mph52%29.94 "Hg10 mi
2:59 PM77 °FScattered clouds.7 mph56%29.95 "Hg10 mi
1:59 PM76 °FScattered clouds.6 mph60%29.95 "Hg10 mi
12:59 PM75 °FScattered clouds.10 mph62%29.94 "Hg10 mi
11:59 AM76 °FScattered clouds.6 mph58%29.94 "Hg10 mi
10:59 AM76 °FScattered clouds.10 mph60%29.93 "Hg10 mi
9:59 AM75 °FScattered clouds.12 mph62%29.93 "Hg10 mi
8:59 AM73 °FBroken clouds.12 mph64%29.93 "Hg10 mi
7:59 AM72 °FScattered clouds.13 mph68%29.92 "Hg10 mi
6:59 AM71 °FPassing clouds.10 mph68%29.91 "Hg10 mi
5:59 AM69 °FPassing clouds.9 mph73%29.90 "Hg10 mi
4:59 AM70 °FPassing clouds.9 mph71%29.88 "Hg10 mi
3:59 AM71 °FPassing clouds.10 mph66%29.85 "Hg10 mi
2:59 AM73 °FClear.12 mph62%29.85 "Hg10 mi
1:59 AM74 °FClear.13 mph56%29.84 "Hg10 mi
12:59 AM76 °FClear.15 mph54%29.83 "Hg10 mi
11:59 PM
Jul 28
77 °FClear.10 mph56%29.82 "Hg10 mi
10:59 PM78 °FPassing clouds.7 mph58%29.80 "Hg10 mi
9:59 PM80 °FPassing clouds.10 mph54%29.81 "Hg10 mi
8:59 PM81 °FScattered clouds.6 mph53%29.80 "Hg10 mi
7:59 PM83 °FScattered clouds.8 mph48%29.78 "Hg10 mi
6:59 PM84 °FBroken clouds.10 mph45%29.75 "Hg10 mi
5:59 PM85 °FBroken clouds.12 mph48%29.75 "Hg10 mi
Weather by CustomWeather, © 2014

See weather overviewHow to use our weather pages